EDT,Max TemperatureF,Mean TemperatureF,Min TemperatureF,Max Dew PointF,MeanDew PointF,Min DewpointF,Max Humidity, Mean Humidity, Min Humidity, Max Sea Level PressureIn, Mean Sea Level PressureIn, Min Sea Level PressureIn, Max VisibilityMiles, Mean VisibilityMiles, Min VisibilityMiles, Max Wind SpeedMPH, Mean Wind SpeedMPH, Max Gust SpeedMPH,PrecipitationIn, CloudCover, Events, WindDirDegrees
2013-4-1,60,45,30,40,34,9,100,65,29,29.78,29.63,29.49,10,8,2,26,10,41,0.23,6,Rain,305
2013-4-2,38,32,26,17,9,5,50,39,27,29.89,29.83,29.78,10,10,6,29,13,40,T,3,Snow,271
2013-4-3,44,35,26,15,7,1,58,38,18,30.13,29.96,29.89,10,10,10,28,15,37,0.00,0,,282
2013-4-4,55,41,26,16,11,5,50,33,15,30.28,30.14,29.99,10,10,10,17,8,23,0.00,0,,248
2013-4-5,58,46,33,32,20,11,61,41,20,29.99,29.83,29.68,10,10,10,22,9,30,0.00,1,,267
2013-4-6,43,33,22,17,5,-2,53,34,15,30.34,30.17,29.92,10,10,10,26,12,37,0.00,0,,317
2013-4-7,58,39,19,33,20,11,79,51,22,30.33,30.15,29.96,10,10,10,24,7,31,T,2,,177
2013-4-8,63,46,29,38,32,24,100,62,23,30.10,30.02,29.94,10,9,2,21,6,29,T,0,,318
2013-4-9,63,53,42,45,40,36,96,69,42,30.05,29.95,29.89,10,10,4,24,6,35,0.06,6,Rain,349
2013-4-10,60,52,43,47,45,39,100,79,57,29.99,29.94,29.88,10,6,1,12,3,15,0.60,8,Rain,340
2013-4-11,48,43,38,45,36,21,100,70,40,30.17,29.98,29.86,10,9,2,16,6,21,0.05,8,Rain,322
2013-4-12,40,36,31,32,30,19,100,80,59,30.22,30.02,29.86,10,4,1,13,6,20,0.49,8,Rain-Snow,69
2013-4-13,53,43,32,38,33,30,96,74,52,29.94,29.85,29.80,10,10,4,10,3,20,0.03,8,Rain,316
2013-4-14,54,41,28,39,31,24,100,69,38,30.22,30.02,29.92,10,10,6,22,7,29,0.00,6,,284
2013-4-15,59,42,25,34,29,24,100,66,32,30.39,30.33,30.24,10,10,9,14,3,18,0.00,1,,163
2013-4-16,68,53,37,51,40,33,85,63,40,30.39,30.21,30.03,10,10,10,26,11,37,T,6,Rain,183
2013-4-17,64,50,35,53,31,23,66,46,25,30.35,30.20,30.03,10,10,10,22,9,28,0.00,2,Rain,321
2013-4-18,63,46,28,39,29,23,92,60,28,30.46,30.31,30.14,10,10,10,20,7,25,0.00,5,,151
2013-4-19,75,63,50,61,53,41,93,73,53,30.11,29.85,29.60,10,10,4,25,11,35,0.08,8,Rain-Thunderstorm,170
2013-4-20,62,50,37,63,37,19,93,62,30,30.22,29.82,29.61,10,9,2,24,11,35,0.32,6,Rain-Thunderstorm,291
2013-4-21,52,40,27,23,16,8,72,45,17,30.69,30.51,30.26,10,10,10,17,8,23,0.00,1,,318
2013-4-22,53,39,24,30,23,12,92,58,23,30.78,30.71,30.63,10,10,10,18,5,26,0.00,0,,112
2013-4-23,41,35,29,39,34,27,100,90,79,30.61,30.44,30.18,10,9,2,12,6,15,0.00,7,,26
2013-4-24,77,59,41,47,41,33,93,57,21,30.14,29.91,29.75,10,10,10,16,7,21,0.00,3,,300
2013-4-25,61,47,33,50,32,19,72,46,20,30.30,30.05,29.76,10,10,7,21,10,31,0.02,2,Rain,289
2013-4-26,61,44,27,31,28,26,92,60,28,30.43,30.39,30.31,10,10,10,13,4,20,T,4,,142
2013-4-27,67,48,29,35,31,26,100,62,24,30.43,30.37,30.27,10,10,9,10,3,17,0.00,2,,86
2013-4-28,71,51,31,36,33,30,89,56,23,30.34,30.28,30.20,10,10,10,16,4,23,0.00,0,,119
2013-4-29,71,56,40,40,35,30,79,54,28,30.27,30.22,30.16,10,10,10,15,4,21,0.00,3,,164
2013-4-30,72,57,42,35,29,17,70,44,17,30.38,30.30,30.25,10,10,10,16,4,23,0.00,2,,154